SCP
0 0 0 0 0 0 0 0 0 0 0 0 0 0 0 0 0 0 0 0 0 0 0 0 0 0 1 1 1 1 1 1 1 1 1 1 1 1 1 1 1 1 1
1 0 0 0 0 0 0 0 0 0 0 0 0 0 0 0 0 0 0 0 0 0 0 0 0 0 0 1 1 1 1 1 1 1 1 1 1 1 1 1 1 1 1
0 0 0 0 0 0 0 0 0 0 0 0 0 0 0 0 0 0 0 0 0 0 0 0 0 0 0 0 0 0 1 1 1 1 1 1 1 1 1 1 1 1 1
0 0 0 0 0 0 0 0 0 0 0 0 0 0 0 0 0 0 0 0 0 0 0 0 0 0 0 0 0 0 0 1 1 1 1 1 1 1 1 1 1 1 1
0 0 0 0 0 0 0 0 0 0 0 0 0 0 0 0 0 0 0 0 0 0 0 0 0 0 0 0 0 0 0 1 1 1 1 1 1 1 1 1 1 1 1
0 0 0 0 0 0 0 0 0 0 0 0 0 0 0 0 0 0 0 0 0 0 0 0 0 0 0 0 0 0 0 0 1 1 1 1 1 1 1 1 1 1 1
0 0 0 0 0 0 0 0 0 0 0 0 0 0 0 0 0 0 0 0 0 0 0 0 0 0 0 0 0 0 0 0 0 1 1 1 1 1 1 1 1 1 1
0 0 0 0 0 0 0 0 0 0 0 0 0 0 0 0 0 0 0 0 0 0 0 0 0 0 0 0 0 0 0 0 0 0 0 1 1 1 1 1 1 1 1
0 0 0 0 0 0 0 0 0 0 0 0 0 0 0 0 0 0 0 0 0 0 0 0 0 0 0 0 0 0 0 0 0 0 0 0 1 1 1 1 1 1 1
0 0 0 0 0 0 0 0 0 0 0 0 0 0 0 0 0 0 0 0 0 0 0 0 0 0 0 0 0 0 0 0 0 0 0 0 0 1 1 1 1 1 1
0 0 0 0 0 0 0 0 0 0 0 0 0 0 0 0 0 0 0 0 0 0 0 0 0 0 0 0 0 0 0 0 0 0 0 0 0 0 1 1 1 1 1
0 0 0 0 0 0 0 0 0 0 0 0 0 0 0 0 0 0 0 0 0 0 0 0 0 0 0 0 0 0 0 0 0 0 0 0 0 0 0 1 1 1 1
0 0 0 0 0 0 0 0 0 0 0 0 0 0 0 0 0 0 0 0 0 0 0 0 0 0 0 0 0 0 0 0 0 0 0 0 0 0 0 0 0 1 1
0 0 0 0 0 0 0 0 0 0 0 0 0 0 0 0 0 0 0 0 0 0 0 0 0 0 0 0 0 0 0 0 0 0 0 0 0 0 0 0 0 0 1
0 0 0 0 0 0 0 0 0 0 0 0 0 0 0 0 0 0 0 0 0 0 0 0 0 0 0 0 0 0 0 0 0 0 0 0 0 0 0 0 0 0 0
0 0 0 0 0 0 0 0 0 0 0 0 0 0 0 0 0 0 0 0 0 0 0 0 0 0 0 0 0 0 0 0 0 0 0 0 0 0 0 0 0 0 0
0 0 0 0 0 0 0 0 0 0 0 0 0 0 0 0 0 0 0 0 0 0 0 0 0 0 0 0 0 0 0 0 0 0 0 0 0 0 0 0 0 0 0
0 0 0 0 0 0 0 0 0 0 0 0 0 0 0 0 0 0 0 0 0 0 0 0 0 0 0 0 0 0 0 0 0 0 0 0 0 0 0 0 0 0 0
0 0 0 0 0 0 0 0 0 0 0 0 0 0 0 0 0 0 0 0 0 0 0 0 0 0 0 0 0 0 0 0 0 0 0 0 0 0 0 0 0 0 0
0 0 0 0 0 0 0 0 0 0 0 0 0 0 0 0 0 0 0 0 0 0 0 0 0 0 0 0 0 0 0 0 0 0 0 0 0 0 0 0 0 0 0
0 0 0 0 0 0 0 0 0 0 0 0 0 0 0 0 0 0 0 0 0 0 0 0 0 0 0 0 0 0 0 0 0 0 0 0 0 0 0 0 0 0 0
0 0 0 0 0 0 0 0 0 0 0 0 0 0 0 0 0 0 0 0 0 0 0 0 0 0 0 0 0 0 0 0 0 0 0 0 0 0 0 0 0 0 0
0 0 0 0 0 0 0 0 0 0 0 0 0 0 0 0 0 0 0 0 0 0 0 0 0 0 0 0 0 0 0 0 0 0 0 0 0 0 0 0 0 0 0
0 0 0 0 0 0 0 0 0 0 0 0 0 0 0 0 0 0 0 0 0 0 0 0 0 0 0 0 0 0 0 0 0 0 0 0 0 0 0 0 0 0 0
0 0 0 0 0 0 0 0 0 0 0 0 0 0 0 0 0 0 0 0 0 0 0 0 0 0 0 0 0 0 0 0 0 0 0 0 0 0 0 0 0 0 0
0 0 0 0 0 0 0 0 0 0 0 0 0 0 0 0 0 0 0 0 0 0 0 0 0 0 0 0 0 0 0 0 0 0 0 0 0 0 0 0 0 0 0
Wind_Speed
3 2 2 2 3 3 3 3 3 3 3 3 3 3 3 3 2 1 1 4 6 6 7 8 8 8 8 8 8 8 8 8 8 8 8 9 9 9 9 10 10 10 10
3 2 2 2 3 3 3 3 4 3 2 2 2 3 3 2 2 2 1 2 4 5 6 7 8 8 9 9 9 9 9 8 8 9 9 9 10 10 10 10 10 10 10
3 2 2 2 2 2 3 3 4 3 3 3 3 3 2 2 2 2 2 1 1 3 5 6 7 8 9 9 9 10 9 9 9 9 9 10 10 11 11 11 11 11 11
3 2 2 2 3 2 2 2 3 3 3 3 3 3 2 2 2 2 1 2 1 2 3 5 6 8 9 9 9 10 10 10 10 10 10 11 11 12 13 12 12 12 12
4 3 2 2 3 2 2 3 3 3 3 3 3 3 2 2 2 2 2 2 2 2 2 4 6 7 9 10 10 11 11 10 10 11 11 12 12 13 13 13 12 12 12
4 4 2 3 3 2 3 3 3 3 3 3 4 3 3 3 2 1 2 2 2 3 3 3 3 4 8 10 10 11 12 11 11 12 12 13 13 14 14 14 13 13 13
4 4 3 3 3 3 3 3 3 3 4 4 3 3 3 2 1 1 2 2 2 3 3 3 2 2 3 8 10 11 12 13 13 13 13 14 14 15 15 15 14 14 14
4 4 4 3 3 3 4 4 4 2 3 4 3 3 3 2 2 2 1 1 2 3 4 4 3 3 3 2 6 11 13 13 14 14 14 15 15 15 16 16 16 15 15
5 4 4 3 3 3 3 4 4 4 3 3 3 2 2 3 4 2 1 1 2 3 3 3 3 4 4 3 3 8 12 14 15 15 15 16 16 16 16 16 16 16 16
5 5 5 4 3 3 3 4 4 3 3 3 2 2 1 2 3 4 3 2 3 2 2 3 4 4 4 3 4 8 12 14 14 15 15 16 16 16 16 16 17 17 17
4 5 5 4 3 3 3 4 4 4 3 3 2 3 3 2 2 3 5 4 3 2 2 2 3 3 4 3 3 7 12 14 15 14 15 15 16 16 17 17 17 17 17
3 5 5 4 3 3 3 3 3 3 3 3 3 2 3 2 3 3 5 5 5 3 3 2 2 2 3 3 6 11 13 15 15 15 15 15 16 16 17 17 17 18 18
3 4 4 3 3 3 3 3 3 3 3 3 3 2 2 3 3 3 4 5 6 5 3 2 2 2 4 4 5 12 12 14 15 15 15 16 17 17 17 18 18 18 18
2 3 3 3 4 4 4 3 2 2 2 3 3 3 2 3 3 3 3 4 6 5 3 3 2 2 3 4 8 13 8 14 15 15 15 16 17 17 18 18 19 19 19
2 3 3 3 3 4 3 3 2 3 3 3 3 3 3 2 2 3 3 3 4 6 6 4 3 4 4 4 9 7 7 13 16 16 16 17 17 17 18 18 19 20 20
2 2 3 3 3 3 3 2 2 3 3 3 3 3 3 3 3 3 2 3 3 4 6 4 4 6 6 7 10 7 7 15 14 15 16 17 17 18 18 19 19 20 20
2 2 3 3 3 3 3 3 3 3 3 3 3 3 4 4 3 3 3 3 3 3 6 7 5 6 7 7 8 6 6 7 7 14 16 17 17 18 18 18 19 19 19
2 2 2 2 3 3 3 2 3 3 3 4 4 4 4 4 4 3 3 3 3 4 5 9 7 6 7 7 7 8 8 8 7 13 16 17 17 18 18 18 19 19 19
1 2 2 2 2 2 2 2 2 3 3 4 4 4 4 4 4 3 4 4 4 5 4 6 8 6 6 6 8 8 8 7 8 10 14 15 17 18 19 19 19 19 19
1 1 2 2 2 2 2 3 3 3 3 3 3 4 4 4 4 4 4 4 5 5 5 5 7 7 6 6 6 8 9 7 8 8 10 12 15 17 18 19 19 19 19
1 1 2 2 2 2 2 3 3 3 3 3 3 3 3 4 5 5 5 5 5 5 5 5 6 7 7 7 7 7 9 9 8 6 7 8 8 8 9 14 16 18 19
2 2 2 2 2 2 4 4 4 3 3 3 3 3 3 3 5 7 8 9 8 7 7 6 6 8 9 8 8 8 9 10 9 5 8 10 7 8 7 7 16 21 20
1 2 2 1 2 3 5 5 5 3 3 3 3 4 4 4 4 4 7 9 8 9 10 7 7 8 9 9 9 10 9 10 10 8 8 10 7 8 7 10 20 20 19
1 1 1 2 2 3 4 4 5 3 2 3 4 4 4 4 5 6 6 6 6 6 8 6 6 8 8 8 8 9 10 10 10 7 7 9 8 9 9 8 15 18 19
1 1 1 2 2 3 4 5 5 2 2 3 4 4 4 4 8 10 7 7 7 7 8 10 12 12 14 14 12 7 7 7 9 7 4 6 8 10 9 6 9 17 19
1 2 2 2 2 3 4 5 5 2 3 3 3 4 5 7 10 11 6 5 7 8 7 8 9 10 9 10 12 7 6 7 8 8 5 6 7 8 8 6 6 8 10
Wind_Direction
18 22 32 22 13 2 354 345 348 348 349 353 355 0 359 5 10 32 39 33 23 13 1 356 353 352 353 351 347 346 346 347 352 351 348 345 340 334 328 324 319 315 313
19 24 26 24 14 360 349 343 348 344 342 345 347 349 347 351 357 353 3 35 21 9 358 351 349 349 349 350 352 351 349 349 351 350 350 346 340 334 327 322 317 313 311
16 18 26 18 8 354 348 343 345 347 344 346 346 347 345 345 341 348 347 358 352 0 359 348 349 349 348 348 347 347 345 345 346 348 347 342 335 330 323 316 314 312 310
9 15 19 12 3 357 355 347 348 348 345 341 338 332 336 330 319 332 346 354 355 0 355 357 352 352 347 343 341 340 340 340 342 343 342 337 331 326 322 315 309 307 305
6 2 10 5 3 2 356 353 354 345 339 337 328 325 323 313 314 327 346 355 359 359 5 358 354 352 345 342 341 341 340 341 342 341 339 335 330 327 325 323 316 309 308
11 356 0 0 3 4 356 357 353 346 340 331 321 315 297 283 289 330 354 -0 352 358 11 4 356 347 344 339 338 338 339 340 341 340 338 335 331 328 325 325 323 319 314
15 7 5 4 4 4 356 354 351 347 347 342 330 318 295 275 281 16 4 5 5 4 360 356 2 355 336 340 339 340 341 339 339 338 337 335 332 328 325 325 323 320 319
19 11 7 7 3 360 2 358 355 345 350 2 344 325 326 325 359 344 355 11 5 1 357 354 350 352 342 339 336 340 339 337 335 335 334 332 329 328 326 324 322 319 319
19 16 6 8 6 4 1 357 359 352 341 351 4 357 341 316 323 309 355 360 5 355 341 336 337 344 338 342 340 344 344 340 336 335 334 330 328 327 325 323 321 319 317
21 19 13 11 9 9 6 359 3 348 343 339 342 346 315 317 316 312 318 346 344 333 332 337 337 337 345 342 341 345 342 337 334 332 330 329 327 326 324 322 320 319 318
26 21 15 11 12 15 14 9 2 358 351 347 342 330 320 319 297 292 299 312 317 312 322 323 326 337 344 340 337 342 340 336 332 330 328 328 327 325 324 322 321 319 317
19 20 13 12 10 13 8 5 359 359 352 353 347 345 335 326 318 306 299 307 305 304 312 315 326 335 332 336 337 337 334 331 328 327 328 326 325 324 322 320 319 317 316
9 6 4 5 4 359 3 4 358 354 348 344 330 324 327 320 318 310 302 304 303 302 302 314 336 344 341 339 332 332 325 326 325 326 326 326 324 323 321 320 317 315 315
356 355 357 357 356 357 358 357 346 339 340 333 338 338 325 324 324 318 309 309 309 304 299 303 328 347 345 334 328 331 324 324 323 322 323 324 322 321 320 318 317 316 313
350 355 352 352 353 356 350 349 357 349 349 344 335 333 321 319 321 318 318 314 302 303 301 310 332 340 337 328 327 326 318 320 322 321 322 321 319 319 319 318 316 314 311
352 350 350 352 356 0 1 2 359 354 350 343 339 340 332 325 322 323 320 321 309 291 291 307 315 320 323 322 320 321 317 321 320 319 320 320 320 320 318 317 315 313 312
347 346 346 352 356 0 357 2 360 354 350 341 336 334 328 326 324 328 331 329 322 311 293 301 309 314 315 316 319 318 315 315 314 316 318 318 319 320 320 318 317 315 313
347 338 345 352 349 352 352 356 349 346 342 336 335 336 330 332 334 330 332 324 315 310 299 301 306 314 313 313 314 315 318 316 312 312 316 317 318 319 318 317 317 316 314
354 343 341 341 338 340 343 346 346 342 343 335 334 335 333 335 329 331 328 319 315 314 308 299 302 309 309 314 315 314 312 309 311 312 314 317 319 320 319 318 318 318 314
348 333 329 327 325 333 340 342 344 341 333 331 334 335 333 331 325 326 320 317 317 313 307 301 302 308 308 312 315 317 316 317 313 314 313 315 315 317 316 317 317 317 316
331 320 327 327 325 323 334 342 341 329 322 324 331 332 331 328 328 326 322 321 320 312 310 308 306 308 311 322 322 317 312 314 309 308 314 310 310 307 310 311 314 315 314
324 328 327 322 326 329 337 336 335 327 328 327 328 326 323 324 330 325 319 317 315 311 310 308 306 306 309 315 315 314 313 316 313 318 318 308 306 303 306 304 310 315 315
323 321 321 329 324 324 324 332 345 344 334 328 323 320 321 327 325 316 316 320 320 313 306 303 300 300 305 310 311 309 309 307 301 307 311 299 303 302 305 305 311 313 317
323 321 329 333 337 334 333 335 341 342 331 329 323 317 318 326 324 322 322 321 318 317 312 310 299 301 303 306 304 302 303 300 294 295 304 295 304 305 305 301 307 314 319
354 336 340 350 336 325 327 330 337 336 331 326 322 329 330 323 324 326 327 323 322 320 324 320 314 312 313 317 319 316 314 312 306 304 314 302 306 311 301 293 305 315 318
343 346 340 339 325 317 322 328 333 333 326 324 327 333 333 326 327 330 330 325 319 321 329 327 324 323 322 322 326 322 313 309 307 306 321 319 310 323 310 297 307 312 315